KD8CJ Weather Reports


Display with metric or nautical units.
time (UTC)temp
F
wind
direction
speed
MPH
gust
MPH
rain 1hr
in
rain 24hr
in
rain mn
in
humidity
%
barometer
mb
20260901221525 80 243 0.0 1.0 0.00 0.00 0.00 80 1017.1
20260901220014 81 244 0.0 2.0 0.00 0.00 0.00 78 1017.1
20260901214512 81 245 0.0 3.0 0.00 0.00 0.00 77 1017.3
20260901213011 81 212 0.0 3.0 0.00 0.00 0.00 77 1017.3
20260901211504 82 243 0.0 3.0 0.00 0.00 0.00 76 1017.3
20260901210016 82 246 1.0 4.0 0.00 0.00 0.00 74 1017.4
20260901204518 83 250 1.0 4.0 0.00 0.00 0.00 73 1017.4
20260901203045 83 240 0.0 5.0 0.00 0.00 0.00 73 1017.4
20260901201530 83 241 0.0 4.0 0.00 0.00 0.00 72 1017.3
20260901200008 84 248 1.0 3.0 0.00 0.00 0.00 71 1017.1
20260901194510 82 240 1.0 5.0 0.00 0.00 0.00 73 1016.9
20260901193015 83 241 1.0 5.0 0.00 0.00 0.00 73 1017.1
20260901191520 81 184 2.0 5.0 0.00 0.00 0.00 75 1017.2
20260901190019 82 230 2.0 8.0 0.00 0.00 0.00 74 1017.4
20260901184517 82 254 1.0 8.0 0.00 0.00 0.00 76 1017.4
20260901183010 81 238 2.0 6.0 0.00 0.00 0.00 78 1017.4
20260901181519 81 243 1.0 6.0 0.00 0.00 0.00 78 1017.4
20260901180034 80 246 1.0 4.0 0.00 0.00 0.00 80 1017.7
20260901174518 79 242 1.0 4.0 0.00 0.00 0.00 81 1017.8
20260901173018 79 191 0.0 3.0 0.00 0.00 0.00 81 1018.0
20260901171512 79 245 2.0 7.0 0.00 0.00 0.00 81 1018.0
20260901170018 79 239 3.0 5.0 0.00 0.00 0.00 82 1018.2
20260901164524 76 249 1.0 8.0 0.00 0.00 0.00 85 1018.3
20260901163024 75 240 1.0 4.0 0.00 0.00 0.00 86 1018.3
20260901161536 75 196 1.0 5.0 0.00 0.00 0.00 86 1018.5
20260901160030 75 247 1.0 4.0 0.00 0.00 0.00 85 1018.6
20260901154523 76 242 1.0 4.0 0.00 0.00 0.00 83 1018.4
20260901153026 76 211 1.0 4.0 0.00 0.00 0.00 81 1018.1
20260901151524 77 226 1.0 8.0 0.00 0.00 0.00 81 1018.4
20260901150030 78 240 0.0 4.0 0.00 0.00 0.00 81 1018.1
20260901144518 80 245 2.0 8.0 0.00 0.00 0.00 77 1017.9
20260901143023 82 214 3.0 8.0 0.00 0.00 0.00 74 1018.0
20260901141526 81 224 1.0 3.0 0.00 0.00 0.00 75 1017.8
20260901140026 83 225 0.0 6.0 0.00 0.00 0.00 74 1017.7
20260901134548 83 233 1.0 4.0 0.00 0.00 0.00 75 1017.5
20260901133019 81 238 0.0 2.0 0.00 0.00 0.00 80 1017.5
20260901131526 79 239 0.0 3.0 0.00 0.00 0.00 82 1017.7
20260901130032 76 240 0.0 1.0 0.00 0.00 0.00 87 1017.9
20260901124528 75 240 0.0 1.0 0.00 0.00 0.00 88 1017.9
20260901123028 75 239 0.0 1.0 0.00 0.00 0.00 89 1017.9
20260901121518 74 239 0.0 1.0 0.00 0.00 0.00 90 1017.8
20260901120003 73 244 0.0 1.0 0.00 0.00 0.00 90 1017.6
20260901114508 73 244 0.0 1.0 0.00 0.00 0.00 91 1017.5
20260901113017 73 244 0.0 2.0 0.00 0.00 0.00 91 1017.5
20260901111520 73 246 0.0 2.0 0.00 0.00 0.00 91 1017.3
20260901110026 73 243 0.0 2.0 0.00 0.00 0.00 91 1017.2
20260901104507 73 242 0.0 1.0 0.00 0.00 0.00 91 1017.1
20260901103010 72 245 0.0 2.0 0.00 0.00 0.00 92 1017.0
20260901101519 72 245 0.0 3.0 0.00 0.00 0.00 93 1016.9
20260901100020 72 248 0.0 1.0 0.00 0.00 0.00 93 1017.0
20260901094528 72 245 0.0 1.0 0.00 0.00 0.00 92 1017.0
20260901093015 72 244 0.0 2.0 0.00 0.00 0.00 92 1017.0
20260901091510 72 246 0.0 2.0 0.00 0.00 0.00 92 1016.9
20260901090017 72 242 0.0 1.0 0.00 0.00 0.00 93 1017.0
20260901084530 72 247 0.0 1.0 0.00 0.00 0.00 93 1017.0
20260901083034 71 245 0.0 1.0 0.00 0.00 0.00 93 1017.0
20260901081506 71 245 0.0 2.0 0.00 0.00 0.00 94 1016.9
20260901080013 71 245 0.0 1.0 0.00 0.00 0.00 95 1016.9
20260901074526 70 245 0.0 1.0 0.00 0.00 0.00 95 1016.9
20260901073027 70 245 0.0 0.0 0.00 0.00 0.00 94 1016.9
20260901071530 71 245 0.0 1.0 0.00 0.00 0.00 93 1017.0
20260901070011 71 245 0.0 0.0 0.00 0.00 0.00 93 1016.9
20260901064518 72 245 0.0 1.0 0.00 0.00 0.00 92 1016.8
20260901063020 72 245 0.0 1.0 0.00 0.00 0.00 92 1017.0
20260901061527 72 245 0.0 1.0 0.00 0.00 0.00 92 1017.1
20260901060034 72 245 0.0 2.0 0.00 0.00 0.00 91 1017.3
20260901054512 71 250 0.0 1.0 0.00 0.00 0.00 94 1017.2
20260901053020 71 250 0.0 1.0 0.00 0.00 0.00 94 1017.5
20260901051523 71 250 0.0 0.0 0.00 0.00 0.00 95 1017.5
20260901050029 71 250 0.0 0.0 0.00 0.00 0.00 94 1017.7
20260901044543 71 250 0.0 0.0 0.00 0.00 0.00 94 1017.6
20260901043017 71 249 0.0 0.0 0.00 0.00 0.00 94 1017.9
20260901041517 71 250 0.0 0.0 0.00 0.00 0.00 93 1017.6
20260901040025 71 250 0.0 0.0 0.00 0.00 0.00 94 1017.3
20260901034533 71 250 0.0 0.0 0.00 0.00 0.00 93 1017.1
20260901033039 71 250 0.0 0.0 0.00 0.00 0.00 92 1016.8
20260901031516 72 250 0.0 0.0 0.00 0.00 0.00 92 1016.6
20260901030023 72 250 0.0 0.0 0.00 0.00 0.00 90 1016.7
20260901024525 73 250 0.0 0.0 0.00 0.00 0.00 88 1017.1
20260901023027 75 250 0.0 0.0 0.00 0.00 0.00 86 1017.1
20260901021537 76 250 0.0 1.0 0.00 0.00 0.00 85 1017.1
20260901020039 75 256 0.0 1.0 0.00 0.00 0.00 87 1016.5
20260901014526 74 251 0.0 1.0 0.00 0.00 0.00 89 1016.8
20260901013026 74 251 0.0 0.0 0.00 0.00 0.00 88 1016.9
20260901011538 74 251 0.0 0.0 0.00 0.00 0.00 87 1017.3
20260901010035 74 251 0.0 0.0 0.00 0.00 0.00 87 1017.6
20260901004526 75 251 0.0 1.0 0.00 0.00 0.00 86 1017.8
20260901003031 76 251 0.0 0.0 0.00 0.01 0.00 84 1017.9
20260901001528 77 251 0.0 1.0 0.00 0.01 0.00 82 1017.9
20260901000007 78 251 0.0 1.0 0.00 0.01 0.00 81 1017.9
20260831234515 79 251 0.0 1.0 0.00 0.01 0.00 81 1017.8
20260831233035 80 251 0.0 0.0 0.00 0.01 0.00 82 1017.7
20260831231505 81 251 0.0 0.0 0.00 0.01 0.00 80 1017.7
20260831230005 81 251 0.0 1.0 0.00 0.01 0.00 79 1017.7
20260831224511 82 251 0.0 0.0 0.00 0.01 0.00 76 1017.6
20260831223016 84 251 0.0 1.0 0.00 0.01 0.00 75 1017.3